This is the latest recevied weather packets stored in our database for station/object KC8BSD. If no packets are shown the sender has not sent any weather packets the latest 10 day(s).
| Time | Temp. | Humidity | Pressure | Rain* | Wind** | Luminosity | Snow |
|---|---|---|---|---|---|---|---|
| 1777671354 | 8.33° C | 60% | 1015.9 hPa | 0 mm | - | 75 W/m² | - |
| 1777671050 | 8.33° C | 58% | 1015.7 hPa | 0 mm | - | 95 W/m² | - |
| 1777670746 | 8.33° C | 60% | 1015.8 hPa | 0 mm | - | 102 W/m² | - |
| 1777670443 | 8.33° C | 60% | 1015.7 hPa | 0 mm | - | 99 W/m² | - |
| 1777670140 | 8.33° C | 60% | 1015.9 hPa | 0 mm | - | 92 W/m² | - |
| 1777669838 | 8.33° C | 60% | 1015.7 hPa | 0 mm | - | 78 W/m² | - |
| 1777669534 | 8.89° C | 56% | 1015.7 hPa | 0 mm | - | 57 W/m² | - |
| 1777669231 | 8.89° C | 56% | 1015.8 hPa | 0 mm | - | 82 W/m² | - |
| 1777668928 | 8.89° C | 55% | 1015.4 hPa | 0 mm | - | 124 W/m² | - |
| 1777668626 | 8.89° C | 58% | 1015.4 hPa | 0 mm | - | 139 W/m² | - |
| 1777668321 | 8.89° C | 56% | 1015.6 hPa | 0 mm | - | 163 W/m² | - |
| 1777668017 | 8.89° C | 57% | 1015.6 hPa | 0 mm | - | 189 W/m² | - |
| 1777667714 | 8.89° C | 55% | 1015.6 hPa | 0 mm | - | 213 W/m² | - |
| 1777667412 | 9.44° C | 57% | 1015.5 hPa | 0 mm | - | 192 W/m² | - |
| 1777667109 | 9.44° C | 55% | 1015.4 hPa | 0 mm | - | 170 W/m² | - |
| 1777666805 | 9.44° C | 57% | 1015.4 hPa | 0 mm | - | 160 W/m² | - |
| 1777666503 | 10° C | 59% | 1015.6 hPa | 0 mm | - | 198 W/m² | - |
| 1777666199 | 10° C | 56% | 1015.4 hPa | 0 mm | - | 229 W/m² | - |
| 1777665896 | 10° C | 56% | 1015.7 hPa | 0 mm | - | 312 W/m² | - |
| 1777665594 | 10° C | 56% | 1015.3 hPa | 0 mm | - | 323 W/m² | - |
| 1777665290 | 10° C | 56% | 1015.6 hPa | 0 mm | - | 521 W/m² | - |
| 1777664986 | 10° C | 53% | 1015.5 hPa | 0 mm | - | 290 W/m² | - |
| 1777664682 | 10.56° C | 53% | 1015.4 hPa | 0 mm | - | 307 W/m² | - |
| 1777664378 | 10° C | 55% | 1015.2 hPa | 0 mm | - | 379 W/m² | - |
| 1777664076 | 9.44° C | 55% | 1015.3 hPa | 0 mm | - | 311 W/m² | - |
* Rain latest hour (hover to see other rain measurements)
** Current wind speed in m/s (hover to see current wind gust speed)